User: anonymous   Login
Location: Bourg-d�Oueil
(42.8588°N, 0.4991°E)
Time: 07:05:21
(UTC+00:00)
Language:

Cosmos 1980 Rocket - Orbit

View from above orbital plane
View from above orbital plane
View from above satellite
View from above satellite

Ground track
Ground track

The orbit data is extracted from the following two-line orbital elements,

1 19650U 88102B   21266.11769234 -.00000195  00000-0 -74654-4 0  9997
2 19650  71.0014 337.0152 0015664 322.6764  37.3270 14.15808003696642
Epoch (UTC): 23 September 2021 02:49:28
Eccentricity: 0.0015664
inclination: 71.0014°
perigee height: 828 km
apogee height: 851 km
right ascension of ascending node: 337.0152°
argument of perigee: 322.6764°
revolutions per day: 14.15808003
mean anomaly at epoch: 37.3270°
orbit number at epoch: 69664

The dashed part of the orbit path shows where the satellite is in the earth's shadow,  

DLR